Temp
54 53 51 51 51 50 49 49 50 49 49 49 52 49 51 50 50 48 48 51 51 50 51 50 51 52 51 52 53 53 53 51 51 53 55 55 53 53 53 54 55 54 55
53 51 50 50 49 49 48 49 49 48 49 49 49 51 51 52 52 51 50 50 50 49 49 49 50 53 51 51 52 52 53 54 52 51 52 52 52 52 52 52 54 55 54
56 51 49 48 47 47 47 52 49 49 48 49 53 50 51 52 49 48 50 50 49 49 49 49 50 50 48 49 51 49 51 53 52 52 50 51 51 51 50 52 52 52 54
51 49 47 46 47 48 50 49 49 50 51 53 51 51 50 50 48 47 50 49 49 49 48 48 49 49 48 48 48 47 48 50 51 51 50 49 49 50 50 48 47 50 50
50 47 46 48 48 48 49 49 49 49 50 50 50 50 49 48 50 46 49 49 47 47 48 48 49 52 53 51 49 47 46 46 49 49 48 48 48 48 47 48 47 49 49
49 46 48 49 49 49 49 49 49 49 49 49 50 50 47 50 47 49 49 48 48 47 47 48 48 50 50 50 51 51 49 46 46 49 48 47 47 47 47 47 46 46 43
46 49 50 50 51 50 50 50 49 48 48 48 48 48 45 44 46 46 48 48 47 47 47 45 47 48 46 46 49 50 50 50 49 48 48 48 47 48 47 46 47 47 45
47 49 51 52 51 51 50 48 48 48 47 47 48 47 45 47 46 46 46 49 48 47 45 43 43 44 45 45 47 47 47 48 47 48 50 49 49 49 49 49 49 49 49
49 50 51 51 50 50 49 47 48 47 47 48 48 47 45 44 45 45 48 49 49 47 47 44 43 42 44 45 48 46 46 47 49 49 48 47 46 47 49 52 49 47 45
50 51 52 51 49 48 48 48 50 48 47 49 49 51 51 45 45 45 47 47 48 48 48 45 46 43 43 43 44 46 45 46 48 49 49 49 49 48 49 49 49 47 46
52 53 53 49 49 48 47 47 47 46 47 46 47 49 49 47 46 44 45 46 46 46 45 43 45 43 43 43 44 46 45 47 48 49 48 47 46 46 46 47 47 48 44
53 53 51 50 51 51 46 45 45 46 48 44 44 46 49 48 47 46 44 45 48 46 46 43 44 43 43 42 45 43 44 47 48 47 46 44 44 44 45 46 46 46 46
51 49 49 52 49 47 45 43 44 44 45 44 44 43 44 47 45 45 45 45 46 46 46 44 44 43 45 45 43 44 45 47 46 46 45 45 45 46 46 46 46 46 45
47 48 48 46 45 44 46 44 41 41 41 42 43 43 43 44 44 42 46 46 47 47 47 46 45 45 44 45 46 47 47 47 46 45 45 46 47 46 44 45 44 44 43
47 50 47 46 45 42 41 40 43 42 42 42 41 42 42 41 42 41 41 44 45 44 45 44 43 43 43 44 46 47 47 47 46 46 46 44 44 44 43 46 45 44 42
46 47 46 46 44 46 45 44 41 41 41 40 40 40 43 40 40 40 41 40 41 41 43 42 41 42 42 44 44 45 45 46 45 46 44 44 43 44 44 44 45 44 42
46 46 47 45 43 42 45 44 42 44 43 41 40 40 39 39 40 40 40 40 40 42 42 42 42 42 43 44 44 44 44 45 48 46 45 44 45 44 44 43 43 42 42
48 46 47 46 45 46 46 44 44 42 42 42 43 41 40 40 40 39 41 43 44 44 44 43 43 44 44 44 45 45 46 46 45 45 45 45 45 44 44 43 42 41 40
51 47 46 47 47 46 46 44 44 43 42 42 43 43 43 41 41 41 42 45 45 44 45 45 45 45 45 45 45 46 46 45 45 45 44 44 44 44 42 42 40 39 40
47 44 45 47 46 45 45 44 44 43 43 42 42 42 44 45 44 45 46 47 46 46 46 46 46 46 46 46 47 47 46 46 46 45 45 45 44 44 42 42 41 40 40
47 47 43 46 45 46 46 45 45 44 44 43 43 41 34 44 44 45 46 46 47 46 46 46 47 48 48 48 47 47 47 46 46 46 44 44 43 42 42 42 42 43 42
49 47 47 46 46 46 45 46 46 45 45 45 44 44 39 46 46 46 46 46 48 48 49 49 49 49 49 50 50 49 48 47 47 47 47 47 47 44 44 44 44 44 45
50 49 48 47 47 44 47 48 48 48 47 47 47 47 48 47 47 48 47 48 48 48 49 50 50 51 52 49 49 52 51 50 50 50 49 49 46 46 46 45 46 49 51
50 47 48 49 50 51 49 48 47 44 48 47 47 47 47 48 49 49 49 50 50 50 51 53 53 52 51 51 51 51 50 51 54 52 54 52 49 47 51 52 52 52 53
53 50 50 50 50 51 51 50 50 50 50 51 51 51 50 51 50 51 51 51 51 53 52 52 51 53 52 50 51 51 40 37 46 38 50 52 51 51 53 53 53 56 54
52 52 52 53 50 53 51 51 53 53 53 54 53 53 55 55 55 55 55 55 55 54 52 53 52 51 52 49 46 38 36 37 43 36 45 51 53 52 53 54 55 55 52
MSLP
1019.67 1019.51 1019.46 1019.52 1019.49 1018.96 1018.82 1018.40 1018.20 1017.99 1017.78 1017.51 1017.25 1016.92 1016.55 1016.15 1015.79 1015.49 1015.06 1014.59 1014.22 1013.89 1013.48 1013.16 1012.71 1012.33 1011.67 1011.25 1010.88 1010.32 1009.92 1009.77 1009.57 1009.55 1009.42 1009.88 1010.28 1010.54 1011.14 1011.19 1011.55 1012.01 1012.58
1019.84 1019.71 1019.63 1019.48 1019.42 1019.00 1018.59 1018.33 1018.09 1017.90 1017.68 1017.51 1017.11 1016.67 1016.34 1015.92 1015.58 1015.22 1014.92 1014.60 1014.12 1013.87 1013.52 1013.09 1012.75 1012.23 1011.81 1011.45 1010.94 1010.49 1010.13 1009.90 1009.71 1009.61 1009.80 1010.16 1010.50 1011.08 1011.28 1011.62 1011.90 1012.73 1013.04
1020.29 1020.05 1019.87 1019.61 1019.36 1018.88 1018.54 1018.26 1017.99 1017.70 1017.46 1017.17 1016.83 1016.44 1016.12 1015.83 1015.62 1015.30 1014.95 1014.64 1014.26 1013.95 1013.43 1013.00 1012.79 1012.47 1012.09 1011.75 1011.32 1011.08 1010.50 1010.26 1009.97 1009.79 1010.16 1010.57 1011.04 1011.50 1011.83 1012.27 1012.70 1013.22 1013.41
1020.64 1020.34 1020.13 1019.69 1019.19 1018.71 1018.34 1018.07 1017.78 1017.43 1017.18 1016.83 1016.43 1016.19 1015.93 1015.79 1015.70 1015.38 1015.08 1014.77 1014.38 1014.09 1013.79 1013.45 1013.08 1012.78 1012.50 1012.16 1011.80 1011.56 1011.06 1010.67 1010.17 1009.96 1010.25 1010.79 1011.29 1011.93 1012.08 1012.42 1013.20 1013.72 1013.93
1020.91 1020.54 1020.04 1019.43 1018.97 1018.59 1018.24 1017.81 1017.45 1017.12 1016.80 1016.56 1016.27 1016.02 1015.88 1015.80 1015.71 1015.61 1015.28 1014.96 1014.79 1014.49 1014.26 1013.98 1013.66 1013.28 1012.96 1012.58 1012.19 1011.92 1011.55 1011.04 1010.54 1010.50 1010.55 1011.06 1011.58 1012.02 1012.49 1012.93 1013.25 1013.88 1014.24
1021.06 1020.55 1019.98 1019.37 1018.87 1018.42 1017.98 1017.60 1017.27 1016.95 1016.56 1016.21 1016.02 1015.95 1016.05 1016.02 1015.89 1015.62 1015.49 1015.05 1014.97 1014.84 1014.66 1014.33 1014.00 1013.67 1013.30 1012.87 1012.47 1012.08 1011.74 1011.41 1011.04 1010.72 1010.81 1011.27 1011.81 1012.26 1012.74 1013.09 1013.44 1013.92 1014.49
1021.08 1020.43 1019.76 1019.25 1018.84 1018.34 1017.84 1017.56 1017.25 1016.96 1016.55 1016.20 1015.97 1016.03 1016.36 1016.22 1015.88 1015.52 1015.31 1015.23 1015.08 1014.96 1014.76 1014.61 1014.34 1014.04 1013.51 1013.09 1012.69 1012.32 1011.99 1011.58 1011.32 1011.03 1010.82 1011.37 1011.86 1012.34 1012.91 1013.41 1013.59 1013.64 1014.14
1020.82 1020.22 1019.58 1019.15 1018.84 1018.34 1017.94 1017.69 1017.29 1016.85 1016.55 1016.40 1016.29 1016.38 1016.55 1016.35 1015.88 1015.28 1014.88 1015.01 1015.10 1015.25 1015.05 1014.87 1014.69 1014.31 1013.72 1013.12 1012.67 1012.23 1011.84 1011.47 1011.23 1011.01 1010.92 1011.47 1011.92 1012.61 1012.96 1013.15 1013.20 1013.61 1014.38
1020.58 1020.06 1019.57 1019.09 1018.79 1018.58 1018.19 1017.88 1017.40 1017.08 1016.81 1016.56 1016.57 1016.67 1016.68 1016.45 1015.95 1015.26 1014.70 1014.94 1015.01 1015.38 1015.29 1015.11 1014.98 1014.55 1013.92 1013.10 1012.75 1012.47 1012.03 1011.59 1011.17 1011.00 1011.38 1011.99 1012.51 1012.88 1012.95 1012.95 1013.72 1014.00 1014.42
1020.31 1019.86 1019.28 1018.92 1018.90 1018.76 1018.41 1018.10 1017.57 1017.24 1017.08 1016.83 1016.71 1016.60 1016.56 1016.53 1016.24 1015.89 1015.52 1015.31 1015.19 1015.35 1015.48 1015.38 1015.30 1014.92 1014.28 1013.72 1013.30 1012.88 1012.51 1012.17 1011.95 1012.13 1012.39 1012.94 1013.14 1013.41 1013.38 1013.40 1013.66 1013.86 1013.86
1020.10 1019.63 1019.27 1019.09 1019.06 1018.77 1018.52 1018.29 1018.15 1017.82 1017.41 1017.38 1017.39 1017.09 1016.91 1016.82 1016.59 1016.31 1015.93 1015.62 1015.67 1015.72 1015.74 1015.81 1015.60 1015.26 1014.68 1014.13 1013.73 1013.33 1013.11 1012.84 1012.79 1012.85 1013.28 1013.81 1014.21 1014.32 1014.36 1014.23 1014.11 1013.80 1014.64
1020.34 1019.96 1019.61 1019.35 1019.11 1018.99 1018.99 1018.89 1018.78 1018.45 1018.35 1018.14 1018.05 1017.82 1017.46 1017.22 1017.01 1016.73 1016.41 1016.12 1015.90 1015.90 1016.08 1016.15 1015.90 1015.58 1015.15 1014.69 1014.29 1013.98 1013.75 1013.59 1013.66 1013.84 1014.24 1014.77 1014.93 1015.19 1015.22 1015.33 1015.45 1015.69 1015.90
1020.57 1020.37 1020.02 1019.69 1019.63 1019.60 1019.70 1019.84 1019.55 1019.32 1019.04 1019.00 1018.77 1018.49 1018.16 1017.84 1017.56 1017.15 1016.72 1016.42 1016.39 1016.31 1016.42 1016.49 1016.19 1015.89 1015.53 1015.15 1014.86 1014.62 1014.46 1014.46 1014.58 1014.73 1015.26 1015.80 1016.14 1016.44 1016.60 1016.67 1016.54 1016.33 1016.26
1020.74 1020.44 1020.15 1020.14 1020.16 1020.12 1020.26 1020.37 1020.32 1020.21 1019.98 1019.76 1019.34 1018.93 1018.65 1018.31 1018.06 1017.70 1017.19 1016.86 1016.68 1016.65 1016.72 1016.76 1016.61 1016.37 1016.01 1015.69 1015.45 1015.36 1015.36 1015.45 1015.52 1015.80 1016.21 1016.63 1016.90 1017.12 1017.12 1017.07 1016.97 1016.93 1016.68
1020.95 1020.63 1020.59 1020.46 1020.59 1020.98 1021.01 1020.98 1020.83 1020.93 1020.65 1020.34 1019.98 1019.51 1019.04 1018.69 1018.42 1018.10 1017.71 1017.43 1017.29 1017.23 1017.15 1017.14 1017.06 1016.90 1016.66 1016.42 1016.25 1016.23 1016.31 1016.39 1016.50 1016.85 1017.10 1017.45 1017.63 1017.69 1017.79 1017.71 1017.50 1017.38 1017.37
1021.25 1021.06 1021.10 1021.09 1021.16 1021.28 1021.29 1021.33 1021.26 1021.09 1020.92 1020.66 1020.36 1019.98 1019.36 1019.06 1018.64 1018.35 1018.16 1018.03 1017.87 1017.76 1017.75 1017.74 1017.69 1017.58 1017.38 1017.22 1017.16 1017.27 1017.33 1017.33 1017.42 1017.53 1017.81 1017.97 1018.04 1018.11 1018.15 1018.15 1018.04 1018.06 1018.30
1021.72 1021.61 1021.73 1021.75 1021.79 1021.71 1021.62 1021.56 1021.47 1021.25 1021.08 1020.89 1020.66 1020.28 1019.77 1019.39 1019.16 1018.99 1018.77 1018.64 1018.50 1018.29 1018.23 1018.31 1018.27 1018.17 1018.13 1018.09 1018.05 1018.05 1018.00 1017.95 1017.97 1018.14 1018.27 1018.44 1018.54 1018.62 1018.67 1018.73 1018.78 1018.84 1019.04
1022.24 1022.28 1022.33 1022.40 1022.31 1022.12 1022.02 1021.92 1021.78 1021.55 1021.30 1021.20 1020.96 1020.71 1020.39 1020.01 1019.69 1019.41 1019.23 1019.08 1018.98 1018.98 1018.92 1018.93 1018.92 1018.89 1018.84 1018.77 1018.67 1018.58 1018.48 1018.56 1018.75 1018.86 1018.94 1019.08 1019.14 1019.17 1019.29 1019.32 1019.41 1019.53 1019.58
1022.81 1023.08 1023.05 1022.91 1022.78 1022.64 1022.49 1022.31 1022.10 1021.88 1021.72 1021.60 1021.36 1021.12 1020.88 1020.55 1020.20 1019.86 1019.58 1019.38 1019.40 1019.47 1019.54 1019.57 1019.60 1019.58 1019.49 1019.34 1019.26 1019.20 1019.20 1019.30 1019.42 1019.51 1019.64 1019.69 1019.75 1019.67 1019.76 1020.02 1020.13 1020.17 1020.10
1023.98 1023.83 1023.58 1023.46 1023.33 1023.07 1022.91 1022.61 1022.35 1022.24 1022.14 1022.02 1021.86 1021.79 1021.51 1021.06 1020.77 1020.54 1020.22 1020.07 1020.04 1020.07 1020.10 1020.10 1020.17 1020.10 1019.93 1019.74 1019.66 1019.72 1019.83 1019.91 1020.05 1020.12 1020.23 1020.31 1020.35 1020.38 1020.58 1020.66 1020.62 1020.52 1020.36
1024.62 1024.54 1024.29 1024.04 1023.79 1023.44 1023.23 1022.93 1022.76 1022.64 1022.51 1022.46 1022.40 1022.23 1021.91 1021.68 1021.46 1021.22 1021.02 1020.78 1020.74 1020.75 1020.72 1020.61 1020.52 1020.42 1020.35 1020.26 1020.27 1020.32 1020.33 1020.39 1020.46 1020.64 1020.76 1020.84 1020.91 1020.99 1020.81 1020.57 1020.38 1020.16 1020.00
1025.06 1025.03 1024.90 1024.53 1024.27 1023.91 1023.72 1023.29 1023.02 1022.93 1022.82 1022.75 1022.71 1022.52 1022.29 1022.03 1021.95 1021.90 1021.78 1021.60 1021.47 1021.32 1021.22 1021.05 1020.95 1020.83 1020.72 1020.64 1020.59 1020.57 1020.64 1020.78 1020.93 1021.04 1021.06 1021.01 1020.94 1020.84 1020.72 1020.57 1020.35 1020.11 1019.80
1025.47 1025.17 1024.82 1024.86 1024.61 1024.48 1024.20 1023.73 1023.56 1023.31 1023.23 1023.05 1023.01 1022.94 1022.73 1022.69 1022.63 1022.54 1022.43 1022.33 1022.12 1021.89 1021.71 1021.49 1021.34 1021.27 1021.00 1020.91 1020.80 1020.78 1020.88 1021.04 1021.06 1020.96 1020.95 1020.95 1020.90 1020.74 1020.61 1020.55 1020.30 1019.69 1019.23
1025.65 1025.54 1025.03 1024.84 1024.55 1024.40 1024.84 1024.72 1024.39 1024.13 1023.80 1023.57 1023.45 1023.43 1023.23 1023.05 1023.00 1022.97 1022.97 1022.78 1022.61 1022.50 1022.26 1022.06 1021.91 1021.76 1021.58 1021.47 1021.32 1021.24 1021.16 1021.23 1021.12 1020.99 1020.77 1020.95 1020.83 1020.71 1020.70 1020.43 1020.03 1019.48 1019.10
1025.53 1025.51 1025.20 1025.00 1024.63 1024.54 1024.60 1024.96 1024.59 1024.36 1024.19 1023.73 1023.43 1023.77 1023.77 1023.51 1023.45 1023.45 1023.43 1023.34 1023.26 1023.09 1022.98 1022.77 1022.58 1022.37 1022.25 1022.10 1021.87 1021.69 1021.57 1021.35 1021.13 1021.06 1020.93 1020.76 1020.81 1020.78 1020.57 1020.35 1020.17 1019.83 1019.75
1025.55 1025.55 1025.02 1024.98 1024.98 1024.75 1024.74 1024.83 1024.72 1024.46 1024.30 1024.18 1023.94 1023.92 1024.09 1024.11 1024.08 1024.02 1023.87 1023.76 1023.77 1023.79 1023.77 1023.64 1023.53 1023.31 1022.99 1022.80 1022.62 1022.37 1022.01 1021.73 1021.49 1021.30 1021.04 1020.85 1020.85 1020.82 1020.75 1020.67 1020.64 1020.75 1020.81
Wind_Speed
6 5 6 6 6 6 4 5 6 5 5 6 5 6 8 8 6 6 6 6 7 6 6 5 6 6 5 5 4 4 2 1 2 1 2 5 8 10 9 10 9 9 9
6 6 5 5 6 6 6 7 6 5 6 6 6 6 8 7 6 6 7 7 6 5 7 6 6 6 6 5 5 5 3 3 2 2 2 3 6 6 9 10 9 8 9
9 6 6 7 6 6 6 7 6 5 5 5 8 7 7 5 6 6 5 6 6 5 8 5 5 6 7 6 6 6 6 2 1 2 3 2 4 6 8 7 8 8 8
7 6 6 6 7 6 7 7 7 6 6 7 6 6 5 5 4 5 5 6 6 6 6 7 6 6 6 7 6 7 6 5 3 3 4 4 4 3 5 6 5 5 7
8 8 8 7 7 7 7 7 7 7 6 6 6 5 4 3 3 5 4 5 6 6 7 7 6 10 12 10 4 4 5 4 3 4 3 4 5 4 6 2 4 7 8
9 8 8 7 7 7 7 6 6 6 6 5 5 2 5 3 8 7 5 3 4 4 5 5 4 7 9 10 9 8 5 4 3 1 2 6 4 6 4 3 3 6 3
8 9 8 7 7 7 6 6 7 5 4 5 5 5 6 6 10 8 7 1 3 4 5 5 5 6 10 6 5 6 4 6 3 3 5 5 7 3 4 3 2 2 4
8 8 6 6 6 7 7 6 6 4 5 4 5 6 6 5 11 10 6 3 1 5 6 6 6 7 10 8 3 4 5 4 3 2 5 6 8 7 4 3 4 6 6
6 6 6 6 6 6 7 6 5 5 4 3 4 6 4 6 12 14 8 4 3 4 4 7 7 7 13 15 3 5 6 7 9 16 17 17 16 10 4 3 5 5 2
6 6 6 6 5 6 5 6 4 3 4 4 4 4 7 5 10 13 9 4 3 3 3 6 13 10 12 12 5 4 6 6 9 12 12 12 11 12 15 7 1 2 4
7 7 6 6 5 5 5 5 6 7 6 6 8 6 5 6 6 10 11 5 4 4 4 3 4 11 13 11 9 5 5 6 10 10 10 8 8 8 8 8 9 6 4
7 8 8 4 4 4 7 7 8 10 7 6 7 8 7 7 12 11 9 8 7 4 5 4 4 10 11 12 7 10 12 9 7 8 9 8 8 8 8 8 9 8 6
7 7 6 6 6 6 6 7 7 8 6 7 6 6 6 6 7 13 12 8 8 6 4 6 9 10 10 7 13 12 10 7 7 9 8 7 6 6 5 5 6 9 11
6 6 5 4 5 7 6 5 6 6 5 6 6 5 5 5 5 6 5 5 5 5 6 6 7 8 9 8 8 9 7 7 7 7 7 7 6 5 5 4 6 6 9
6 6 5 4 5 6 5 4 4 5 4 4 5 5 5 5 5 6 4 5 5 6 6 5 5 6 6 6 7 8 7 7 7 6 6 6 6 6 5 5 6 7 9
6 5 4 5 5 4 3 2 6 4 8 10 9 6 5 7 9 11 10 11 11 10 6 5 6 6 6 6 6 7 7 8 5 6 6 6 6 6 6 6 5 6 6
6 6 6 6 5 4 5 5 5 4 6 8 11 11 12 9 11 9 9 10 9 6 6 6 5 6 6 6 6 6 5 4 6 7 6 6 6 6 6 6 5 4 4
8 14 6 5 5 5 5 5 4 5 5 5 6 8 11 12 11 9 8 5 7 7 7 6 6 6 6 6 5 5 6 7 7 6 6 6 5 5 5 4 4 3 3
7 7 6 5 6 7 6 5 4 5 5 5 4 6 9 10 10 9 8 5 7 6 6 6 5 5 5 4 5 6 7 6 6 6 5 5 5 4 3 4 4 5 5
9 11 9 6 6 5 4 4 4 5 5 5 5 5 4 5 6 7 7 6 6 6 6 6 5 4 4 4 5 5 6 6 6 5 5 4 3 4 4 3 2 1 1
6 6 6 5 6 7 7 4 5 5 5 4 4 4 5 4 5 6 7 8 7 7 5 4 3 3 4 4 4 4 5 4 4 5 3 3 3 3 1 2 3 4 3
6 4 3 4 5 6 6 5 6 5 4 4 3 3 5 4 5 7 7 7 7 6 4 4 4 5 3 2 2 2 3 4 4 3 3 2 2 2 2 3 4 4 4
5 1 2 2 3 4 6 8 8 7 7 7 6 6 7 7 6 7 7 5 4 4 4 4 4 4 4 4 4 4 4 4 3 3 4 4 3 4 3 3 4 5 4
4 3 4 3 3 2 4 5 5 8 6 4 4 4 4 5 5 5 4 4 4 4 4 6 6 7 5 5 4 4 4 3 1 2 5 3 4 4 3 4 5 3 5
4 3 4 3 4 3 4 5 3 1 2 3 4 4 4 4 4 4 4 4 4 6 6 5 5 8 9 9 8 7 7 7 6 5 4 3 4 5 5 4 3 7 9
4 4 4 1 2 3 5 4 4 3 4 4 4 5 7 7 7 8 8 9 9 9 9 8 10 13 12 9 8 8 6 6 7 7 4 3 4 5 4 8 9 8 8
Wind_Direction
30 24 23 16 339 320 316 319 321 335 344 315 333 325 314 304 296 308 306 314 327 317 329 319 319 317 316 318 305 321 304 215 275 64 70 100 113 117 110 98 92 87 80
355 26 20 349 324 331 335 328 325 341 331 322 312 299 297 299 302 293 309 313 311 333 323 326 329 330 356 347 340 342 339 5 355 128 79 61 98 111 118 106 97 93 96
355 357 351 337 323 325 331 320 313 319 302 299 295 290 285 308 337 345 347 350 354 340 344 343 21 16 14 358 1 354 343 324 339 154 109 80 82 101 101 103 106 114 102
329 352 339 316 312 324 313 303 298 293 286 286 293 298 320 323 5 347 357 355 358 10 9 12 8 25 19 6 19 356 342 334 340 98 110 112 110 109 96 113 105 100 95
348 332 307 313 320 310 299 297 292 296 294 299 302 317 344 44 11 343 341 13 10 12 13 7 4 32 30 20 9 351 350 342 329 111 111 117 127 129 121 109 112 107 89
330 311 306 306 300 295 294 305 317 322 322 300 302 333 51 27 355 343 329 51 21 4 358 348 345 7 359 350 360 3 13 348 329 126 106 140 121 112 117 125 116 133 114
306 302 301 311 322 322 324 339 335 324 326 342 13 85 58 10 1 341 307 299 47 23 15 356 1 356 355 346 327 348 339 13 319 292 144 141 131 117 125 112 162 137 110
296 304 311 322 332 334 337 344 343 337 346 15 41 67 53 4 350 334 311 195 42 57 41 30 10 352 348 349 348 345 352 353 354 285 120 106 106 102 93 131 109 98 101
309 332 325 335 338 349 344 355 351 4 10 36 66 59 68 8 359 359 25 124 138 100 69 48 24 356 351 357 37 10 10 18 54 85 92 94 93 89 59 122 141 135 120
321 317 307 320 2 4 4 355 338 16 6 28 43 92 57 33 9 22 27 14 80 142 79 48 24 17 2 5 25 21 35 25 82 90 88 76 63 50 43 46 30 160 102
325 308 330 18 42 20 14 6 2 354 34 24 32 22 28 28 14 23 27 27 46 69 46 41 13 8 6 14 33 40 40 54 74 83 78 68 63 56 47 42 37 51 72
5 359 353 37 27 14 43 18 18 8 26 26 31 12 6 15 20 6 20 42 38 66 68 43 15 17 10 28 39 51 51 64 74 77 75 67 63 55 47 47 52 62 65
359 354 351 24 38 29 49 34 26 16 25 28 22 16 3 5 2 354 358 38 58 70 72 70 35 20 14 37 43 49 53 62 73 75 79 82 79 80 82 76 74 73 68
344 342 341 44 54 40 34 59 42 24 18 16 7 359 355 355 0 348 355 8 46 81 59 49 34 31 35 37 42 48 57 60 66 72 73 69 71 74 63 54 74 79 78
342 333 24 41 84 72 53 28 62 37 29 13 358 344 344 345 344 344 22 37 53 64 65 46 38 32 37 36 48 53 54 56 66 70 75 79 77 78 70 71 68 73 83
2 27 43 44 41 60 66 74 72 88 53 35 18 17 343 8 15 52 60 56 53 47 64 54 49 41 41 44 52 57 52 61 54 73 76 79 83 80 76 63 62 68 78
36 44 49 49 43 37 44 39 28 11 12 26 19 16 13 34 61 59 54 56 49 51 64 61 54 46 48 51 53 59 64 38 68 74 73 73 75 69 67 59 46 56 57
63 54 52 43 41 36 33 29 21 8 6 10 358 14 22 31 38 30 22 64 65 52 63 63 61 53 50 49 47 45 45 62 67 69 67 62 59 68 69 67 53 62 47
59 62 54 49 40 41 41 34 20 10 23 23 12 16 14 18 26 22 24 48 62 68 66 69 60 54 49 43 41 57 61 67 72 77 68 66 60 82 84 55 54 35 17
62 54 53 54 56 54 32 16 8 22 32 34 36 22 4 17 29 32 36 44 56 58 56 65 59 57 46 36 43 58 73 70 75 76 77 73 54 50 68 72 57 17 330
69 63 34 18 13 21 47 13 7 29 39 39 26 10 358 36 32 29 36 42 57 57 54 49 47 54 52 49 52 68 75 80 77 86 79 68 67 85 119 215 258 263 265
71 50 29 359 3 5 4 360 22 28 31 30 24 21 23 42 43 49 42 36 42 48 48 49 36 42 47 66 68 85 84 81 83 94 106 122 152 203 260 294 300 304 303
116 157 321 21 7 1 21 27 38 45 51 52 49 52 49 56 63 65 63 49 31 26 24 34 35 33 21 22 46 64 95 111 137 158 163 181 208 243 259 292 299 298 289
145 179 274 316 337 44 116 71 45 33 38 59 53 52 41 44 59 67 59 54 40 36 38 53 51 51 38 35 32 37 38 32 97 258 259 305 307 317 319 308 306 317 43
157 170 225 275 319 348 49 131 215 217 7 24 35 78 59 40 50 52 63 55 51 57 43 31 29 37 32 29 25 24 8 8 3 353 14 322 286 295 296 320 344 46 48
141 170 246 301 350 23 47 55 65 48 51 44 22 43 74 75 65 59 57 59 57 52 45 40 32 28 28 25 18 13 8 349 337 339 340 14 15 14 45 49 49 51 50